| time (UTC) | temp C | wind direction | speed KPH | gust KPH | rain 1hr cm | rain 24hr cm | rain mn cm | humidity % | barometer mb |
| 20260505071623 | 5 | 359 | 0.0 | 0.0 | 0.00 | 0.00 | 0.00 | 96 | 1014.7 |
| 20260505071121 | 5 | 349 | 1.6 | 1.6 | 0.00 | 0.00 | 0.00 | 96 | 1014.9 |
| 20260505070618 | 5 | 7 | 0.0 | 0.0 | 0.00 | 0.00 | 0.00 | 96 | 1015.0 |
| 20260505070114 | 5 | 7 | 1.6 | 3.2 | 0.00 | 0.00 | 0.00 | 96 | 1015.0 |
| 20260505065610 | 5 | 3 | 1.6 | 1.6 | 0.00 | 0.00 | 0.00 | 96 | 1015.0 |
| 20260505065107 | 5 | 353 | 0.0 | 1.6 | 0.00 | 0.00 | 0.00 | 96 | 1014.6 |
| 20260505064604 | 5 | 359 | 1.6 | 1.6 | 0.00 | 0.00 | 0.00 | 96 | 1015.0 |
| 20260505064102 | 5 | 350 | 1.6 | 1.6 | 0.00 | 0.00 | 0.00 | 96 | 1015.0 |
| 20260505063559 | 5 | 342 | 0.0 | 0.0 | 0.00 | 0.00 | 0.00 | 95 | 1015.1 |
| 20260505063055 | 5 | 348 | 0.0 | 0.0 | 0.00 | 0.00 | 0.00 | 95 | 1014.9 |
| 20260505062551 | 5 | 3 | 1.6 | 1.6 | 0.00 | 0.00 | 0.00 | 95 | 1014.6 |
| 20260505062049 | 5 | 2 | 0.0 | 1.6 | 0.00 | 0.00 | 0.00 | 94 | 1015.0 |
| 20260505061546 | 5 | 2 | 0.0 | 1.6 | 0.00 | 0.00 | 0.00 | 94 | 1015.0 |
| 20260505061044 | 5 | 351 | 0.0 | 0.0 | 0.00 | 0.00 | 0.00 | 94 | 1015.1 |
| 20260505060541 | 5 | 303 | 0.0 | 1.6 | 0.13 | 0.00 | 0.00 | 94 | 1015.1 |
| 20260505060038 | 5 | 354 | 0.0 | 1.6 | 0.13 | 0.00 | 0.00 | 93 | 1014.9 |
| 20260505055533 | 5 | 352 | 0.0 | 1.6 | 0.00 | 0.08 | 0.08 | 92 | 1015.2 |
| 20260505055030 | 5 | 349 | 0.0 | 0.0 | 0.00 | 0.08 | 0.08 | 91 | 1015.5 |
| 20260505054527 | 5 | 352 | 1.6 | 1.6 | 0.00 | 0.08 | 0.08 | 90 | 1015.5 |
| 20260505054026 | 5 | 359 | 0.0 | 1.6 | 0.00 | 0.08 | 0.08 | 88 | 1015.0 |
| 20260505053522 | 5 | 351 | 1.6 | 3.2 | 0.00 | 0.08 | 0.08 | 86 | 1015.6 |
| 20260505053019 | 5 | 1 | 1.6 | 1.6 | 0.00 | 0.08 | 0.08 | 85 | 1015.4 |
| 20260505052516 | 5 | 9 | 3.2 | 3.2 | 0.00 | 0.08 | 0.08 | 84 | 1015.0 |
| 20260505052014 | 5 | 0 | 3.2 | 3.2 | 0.00 | 0.08 | 0.08 | 84 | 1015.2 |
| 20260505051510 | 5 | 355 | 1.6 | 1.6 | 0.00 | 0.08 | 0.08 | 84 | 1015.2 |
| 20260505051009 | 5 | 336 | 0.0 | 0.0 | 0.00 | 0.08 | 0.08 | 84 | 1015.5 |
| 20260505050506 | 5 | 2 | 0.0 | 0.0 | 0.00 | 0.08 | 0.08 | 85 | 1015.2 |
| 20260505041434 | 6 | 3 | 4.8 | 4.8 | 0.00 | 0.08 | 0.08 | 84 | 1014.1 |
| 20260505040931 | 6 | 3 | 3.2 | 3.2 | 0.00 | 0.08 | 0.08 | 84 | 1014.4 |
| 20260505040428 | 6 | 4 | 4.8 | 8.0 | 0.00 | 0.08 | 0.08 | 83 | 1014.1 |
| 20260505035925 | 6 | 0 | 3.2 | 3.2 | 0.00 | 0.08 | 0.08 | 82 | 1014.0 |
| 20260505035421 | 6 | 16 | 1.6 | 3.2 | 0.00 | 0.08 | 0.08 | 82 | 1014.2 |
| 20260505034919 | 6 | 32 | 1.6 | 3.2 | 0.00 | 0.08 | 0.08 | 83 | 1014.4 |
| 20260505034415 | 6 | 26 | 3.2 | 3.2 | 0.00 | 0.08 | 0.08 | 82 | 1014.6 |
| 20260505033912 | 6 | 19 | 4.8 | 8.0 | 0.00 | 0.08 | 0.08 | 82 | 1014.2 |
| 20260505033409 | 6 | 22 | 1.6 | 1.6 | 0.00 | 0.08 | 0.08 | 82 | 1014.4 |
| 20260505032907 | 6 | 9 | 1.6 | 3.2 | 0.00 | 0.08 | 0.08 | 82 | 1014.4 |
| 20260505032403 | 6 | 1 | 4.8 | 4.8 | 0.00 | 0.08 | 0.08 | 81 | 1014.0 |
| 20260505031900 | 6 | 19 | 1.6 | 3.2 | 0.00 | 0.08 | 0.08 | 81 | 1014.1 |
| 20260505031357 | 6 | 25 | 4.8 | 4.8 | 0.00 | 0.08 | 0.08 | 81 | 1014.2 |
| 20260505030854 | 6 | 351 | 4.8 | 8.0 | 0.00 | 0.08 | 0.08 | 81 | 1014.4 |
| 20260505030350 | 6 | 351 | 1.6 | 3.2 | 0.00 | 0.08 | 0.08 | 82 | 1014.4 |
| 20260505025845 | 6 | 353 | 1.6 | 3.2 | 0.00 | 0.08 | 0.08 | 83 | 1014.4 |
| 20260505025343 | 6 | 9 | 1.6 | 3.2 | 0.00 | 0.08 | 0.08 | 85 | 1014.2 |
| 20260505024842 | 6 | 348 | 3.2 | 3.2 | 0.00 | 0.08 | 0.08 | 85 | 1014.0 |
| 20260505024339 | 6 | 359 | 1.6 | 1.6 | 0.00 | 0.08 | 0.08 | 86 | 1013.9 |
| 20260505023836 | 5 | 299 | 1.6 | 1.6 | 0.00 | 0.08 | 0.08 | 86 | 1014.2 |
| 20260505023333 | 5 | 335 | 1.6 | 1.6 | 0.00 | 0.08 | 0.08 | 87 | 1014.0 |
| 20260505022830 | 5 | 354 | 1.6 | 3.2 | 0.00 | 0.08 | 0.08 | 86 | 1014.2 |
| 20260505022327 | 5 | 19 | 3.2 | 3.2 | 0.00 | 0.08 | 0.08 | 86 | 1014.2 |
| 20260505021825 | 5 | 315 | 1.6 | 1.6 | 0.00 | 0.08 | 0.08 | 86 | 1014.2 |
| 20260505021321 | 5 | 346 | 1.6 | 3.2 | 0.00 | 0.08 | 0.08 | 87 | 1014.2 |
| 20260505020817 | 5 | 326 | 4.8 | 4.8 | 0.00 | 0.08 | 0.08 | 88 | 1014.4 |
| 20260505020313 | 5 | 10 | 3.2 | 3.2 | 0.18 | 0.08 | 0.08 | 88 | 1014.6 |
| 20260505015809 | 6 | 350 | 1.6 | 3.2 | 0.30 | 0.08 | 0.08 | 87 | 1014.6 |
| 20260505015307 | 6 | 355 | 3.2 | 3.2 | 0.13 | 0.05 | 0.05 | 85 | 1014.6 |
| 20260505014804 | 7 | 354 | 1.6 | 1.6 | 0.18 | 0.03 | 0.03 | 80 | 1014.6 |
| 20260505014301 | 7 | 346 | 3.2 | 3.2 | 0.18 | 0.03 | 0.03 | 75 | 1014.0 |
| 20260505013757 | 8 | 334 | 0.0 | 0.0 | 0.00 | 0.00 | 0.00 | 73 | 1014.2 |
| 20260505013254 | 9 | 23 | 1.6 | 1.6 | 0.00 | 0.00 | 0.00 | 69 | 1014.2 |
| 20260505012753 | 10 | 150 | 0.0 | 0.0 | 0.00 | 0.00 | 0.00 | 61 | 1014.2 |
| 20260505012250 | 10 | 329 | 3.2 | 3.2 | 0.00 | 0.00 | 0.00 | 54 | 1014.1 |
| 20260505011745 | 10 | 349 | 1.6 | 1.6 | 0.00 | 0.00 | 0.00 | 54 | 1014.2 |
| 20260505011243 | 10 | 281 | 1.6 | 1.6 | 0.00 | 0.00 | 0.00 | 53 | 1013.9 |
| 20260505010738 | 11 | 322 | 3.2 | 4.8 | 0.00 | 0.00 | 0.00 | 51 | 1013.7 |
| 20260505010235 | 11 | 283 | 1.6 | 3.2 | 0.00 | 0.00 | 0.00 | 48 | 1013.5 |
| 20260505005731 | 11 | 283 | 1.6 | 3.2 | 0.00 | 0.00 | 0.00 | 48 | 1013.2 |
| 20260505005228 | 11 | 338 | 4.8 | 4.8 | 0.00 | 0.00 | 0.00 | 48 | 1012.9 |
| 20260505004726 | 11 | 9 | 1.6 | 1.6 | 0.00 | 0.00 | 0.00 | 48 | 1012.5 |
| 20260505004222 | 11 | 352 | 3.2 | 3.2 | 0.00 | 0.00 | 0.00 | 48 | 1012.9 |
| 20260505003719 | 11 | 263 | 4.8 | 8.0 | 0.00 | 0.00 | 0.00 | 47 | 1012.2 |
| 20260505003217 | 11 | 348 | 4.8 | 4.8 | 0.00 | 0.00 | 0.00 | 46 | 1012.6 |
| 20260505002713 | 12 | 10 | 4.8 | 4.8 | 0.00 | 0.00 | 0.00 | 44 | 1012.5 |
| 20260505002211 | 12 | 10 | 4.8 | 4.8 | 0.00 | 0.00 | 0.00 | 43 | 1012.4 |
| 20260505001708 | 12 | 7 | 6.4 | 8.0 | 0.00 | 0.00 | 0.00 | 42 | 1012.2 |
| 20260505001205 | 12 | 7 | 4.8 | 4.8 | 0.00 | 0.00 | 0.00 | 42 | 1012.4 |
| 20260505000702 | 12 | 19 | 4.8 | 4.8 | 0.00 | 0.00 | 0.00 | 42 | 1012.2 |
| 20260505000200 | 13 | 5 | 3.2 | 3.2 | 0.00 | 0.00 | 0.00 | 42 | 1012.2 |
| 20260504235656 | 13 | 14 | 3.2 | 4.8 | 0.00 | 0.00 | 0.00 | 42 | 1012.5 |
| 20260504235152 | 13 | 23 | 8.0 | 9.7 | 0.00 | 0.00 | 0.00 | 41 | 1012.6 |
| 20260504234650 | 13 | 39 | 4.8 | 4.8 | 0.00 | 0.00 | 0.00 | 40 | 1012.2 |
| 20260504234147 | 14 | 343 | 4.8 | 4.8 | 0.00 | 0.00 | 0.00 | 38 | 1012.2 |
| 20260504233643 | 14 | 290 | 1.6 | 3.2 | 0.00 | 0.00 | 0.00 | 39 | 1012.1 |
| 20260504233139 | 15 | 41 | 4.8 | 4.8 | 0.00 | 0.00 | 0.00 | 38 | 1012.2 |
| 20260504232637 | 15 | 299 | 3.2 | 8.0 | 0.00 | 0.00 | 0.00 | 38 | 1012.2 |
| 20260504232133 | 15 | 25 | 1.6 | 3.2 | 0.00 | 0.00 | 0.00 | 38 | 1012.1 |
| 20260504231630 | 15 | 302 | 0.0 | 0.0 | 0.00 | 0.00 | 0.00 | 37 | 1012.2 |
| 20260504231127 | 15 | 245 | 3.2 | 3.2 | 0.00 | 0.00 | 0.00 | 36 | 1012.4 |
| 20260504230623 | 15 | 147 | 1.6 | 3.2 | 0.00 | 0.00 | 0.00 | 37 | 1012.4 |
| 20260504230122 | 15 | 181 | 0.0 | 1.6 | 0.00 | 0.00 | 0.00 | 37 | 1012.0 |
| 20260504225619 | 15 | 219 | 4.8 | 9.7 | 0.00 | 0.00 | 0.00 | 37 | 1012.1 |
| 20260504225115 | 15 | 265 | 1.6 | 3.2 | 0.00 | 0.00 | 0.00 | 37 | 1012.0 |
| 20260504224612 | 15 | 130 | 0.0 | 0.0 | 0.00 | 0.00 | 0.00 | 36 | 1012.4 |
| 20260504224109 | 15 | 43 | 0.0 | 1.6 | 0.00 | 0.00 | 0.00 | 37 | 1012.1 |
| 20260504223606 | 15 | 225 | 3.2 | 4.8 | 0.00 | 0.00 | 0.00 | 37 | 1011.9 |
| 20260504223102 | 15 | 255 | 1.6 | 1.6 | 0.00 | 0.00 | 0.00 | 36 | 1012.4 |
| 20260504222559 | 15 | 271 | 3.2 | 3.2 | 0.00 | 0.00 | 0.00 | 38 | 1012.4 |
| 20260504222056 | 16 | 86 | 3.2 | 4.8 | 0.00 | 0.00 | 0.00 | 33 | 1012.0 |
| 20260504221553 | 15 | 352 | 0.0 | 0.0 | 0.00 | 0.00 | 0.00 | 33 | 1012.0 |
| 20260504221050 | 15 | 118 | 0.0 | 1.6 | 0.00 | 0.00 | 0.00 | 32 | 1012.2 |
| 20260504220547 | 15 | 62 | 0.0 | 0.0 | 0.00 | 0.00 | 0.00 | 34 | 1012.1 |
| 20260504220044 | 15 | 280 | 0.0 | 1.6 | 0.00 | 0.00 | 0.00 | 32 | 1012.0 |
| 20260504215540 | 15 | 200 | 4.8 | 8.0 | 0.00 | 0.00 | 0.00 | 38 | 1012.5 |
| 20260504215038 | 15 | 120 | 4.8 | 8.0 | 0.00 | 0.00 | 0.00 | 33 | 1012.0 |
| 20260504214533 | 15 | 338 | 0.0 | 1.6 | 0.00 | 0.00 | 0.00 | 31 | 1012.2 |
| 20260504214030 | 15 | 271 | 1.6 | 1.6 | 0.00 | 0.00 | 0.00 | 30 | 1011.7 |
| 20260504213527 | 16 | 324 | 1.6 | 1.6 | 0.00 | 0.00 | 0.00 | 29 | 1011.7 |
| 20260504213024 | 16 | 11 | 4.8 | 8.0 | 0.00 | 0.00 | 0.00 | 28 | 1011.5 |
| 20260504212519 | 16 | 300 | 0.0 | 0.0 | 0.00 | 0.00 | 0.00 | 27 | 1011.6 |
| 20260504212017 | 16 | 268 | 0.0 | 0.0 | 0.00 | 0.00 | 0.00 | 26 | 1011.9 |
| 20260504211514 | 16 | 316 | 1.6 | 1.6 | 0.00 | 0.00 | 0.00 | 26 | 1011.9 |
| 20260504211011 | 17 | 6 | 3.2 | 3.2 | 0.00 | 0.00 | 0.00 | 26 | 1011.4 |
| 20260504210508 | 17 | 341 | 0.0 | 1.6 | 0.00 | 0.00 | 0.00 | 25 | 1011.7 |
| 20260504210005 | 17 | 161 | 1.6 | 1.6 | 0.00 | 0.00 | 0.00 | 24 | 1011.6 |
| 20260504205503 | 17 | 304 | 0.0 | 1.6 | 0.00 | 0.00 | 0.00 | 24 | 1011.6 |
| 20260504205000 | 17 | 238 | 0.0 | 1.6 | 0.00 | 0.00 | 0.00 | 24 | 1011.9 |
| 20260504204458 | 17 | 229 | 4.8 | 4.8 | 0.00 | 0.00 | 0.00 | 24 | 1012.0 |
| 20260504203957 | 17 | 233 | 0.0 | 0.0 | 0.00 | 0.00 | 0.00 | 26 | 1011.7 |
| 20260504203455 | 17 | 235 | 3.2 | 4.8 | 0.00 | 0.00 | 0.00 | 26 | 1012.1 |
| 20260504202950 | 17 | 338 | 0.0 | 0.0 | 0.00 | 0.00 | 0.00 | 27 | 1012.5 |
| 20260504202447 | 17 | 285 | 3.2 | 3.2 | 0.00 | 0.00 | 0.00 | 26 | 1012.4 |
| 20260504201944 | 17 | 308 | 1.6 | 1.6 | 0.00 | 0.00 | 0.00 | 25 | 1012.2 |
| 20260504201441 | 17 | 221 | 1.6 | 3.2 | 0.00 | 0.00 | 0.00 | 24 | 1012.1 |
| 20260504200939 | 17 | 292 | 1.6 | 3.2 | 0.00 | 0.00 | 0.00 | 24 | 1012.5 |
| 20260504200435 | 17 | 105 | 0.0 | 0.0 | 0.00 | 0.00 | 0.00 | 26 | 1012.4 |
| 20260504195932 | 16 | 358 | 3.2 | 3.2 | 0.00 | 0.00 | 0.00 | 26 | 1012.5 |
| 20260504195428 | 16 | 294 | 1.6 | 1.6 | 0.00 | 0.00 | 0.00 | 25 | 1012.2 |
| 20260504194924 | 16 | 226 | 4.8 | 4.8 | 0.00 | 0.00 | 0.00 | 26 | 1012.4 |
| 20260504194420 | 17 | 281 | 4.8 | 9.7 | 0.00 | 0.00 | 0.00 | 25 | 1012.6 |
| 20260504193916 | 17 | 250 | 3.2 | 3.2 | 0.00 | 0.00 | 0.00 | 23 | 1012.6 |
| 20260504193414 | 17 | 278 | 1.6 | 1.6 | 0.00 | 0.00 | 0.00 | 23 | 1012.6 |
| 20260504192913 | 17 | 251 | 0.0 | 1.6 | 0.00 | 0.00 | 0.00 | 23 | 1012.4 |
| 20260504192410 | 17 | 352 | 1.6 | 1.6 | 0.00 | 0.00 | 0.00 | 22 | 1012.5 |
| 20260504191909 | 20 | 173 | 0.0 | 0.0 | 0.00 | 0.00 | 0.00 | 22 | 1012.5 |
| 20260504191406 | 20 | 300 | 0.0 | 1.6 | 0.00 | 0.00 | 0.00 | 20 | 1012.6 |
| 20260504190901 | 19 | 351 | 3.2 | 4.8 | 0.00 | 0.00 | 0.00 | 20 | 1012.6 |
| 20260504190357 | 19 | 179 | 4.8 | 4.8 | 0.00 | 0.00 | 0.00 | 21 | 1012.7 |
| 20260504185854 | 19 | 261 | 1.6 | 1.6 | 0.00 | 0.00 | 0.00 | 20 | 1012.7 |
| 20260504185351 | 20 | 306 | 1.6 | 1.6 | 0.00 | 0.00 | 0.00 | 21 | 1012.7 |
| 20260504184847 | 18 | 188 | 4.8 | 8.0 | 0.00 | 0.00 | 0.00 | 22 | 1012.9 |
| 20260504184343 | 18 | 193 | 3.2 | 3.2 | 0.00 | 0.00 | 0.00 | 21 | 1013.0 |
| 20260504183839 | 18 | 271 | 6.4 | 8.0 | 0.00 | 0.00 | 0.00 | 20 | 1013.2 |
| 20260504183337 | 19 | 248 | 3.2 | 3.2 | 0.00 | 0.00 | 0.00 | 22 | 1013.4 |
| 20260504182834 | 19 | 25 | 1.6 | 3.2 | 0.00 | 0.00 | 0.00 | 22 | 1013.5 |
| 20260504182331 | 18 | 300 | 0.0 | 0.0 | 0.00 | 0.00 | 0.00 | 25 | 1013.6 |
| 20260504181828 | 16 | 190 | 1.6 | 3.2 | 0.00 | 0.00 | 0.00 | 24 | 1013.5 |
| 20260504181326 | 16 | 167 | 3.2 | 3.2 | 0.00 | 0.00 | 0.00 | 26 | 1013.5 |
| 20260504180824 | 17 | 75 | 3.2 | 3.2 | 0.00 | 0.00 | 0.00 | 24 | 1013.5 |
| 20260504180322 | 17 | 304 | 1.6 | 3.2 | 0.00 | 0.00 | 0.00 | 26 | 1013.9 |
| 20260504175820 | 17 | 326 | 1.6 | 3.2 | 0.00 | 0.00 | 0.00 | 25 | 1013.6 |
| 20260504175317 | 16 | 122 | 1.6 | 1.6 | 0.00 | 0.00 | 0.00 | 28 | 1013.4 |
| 20260504174815 | 16 | 257 | 1.6 | 1.6 | 0.00 | 0.00 | 0.00 | 29 | 1013.9 |
| 20260504174312 | 17 | 267 | 1.6 | 3.2 | 0.00 | 0.00 | 0.00 | 27 | 1014.0 |
| 20260504173809 | 18 | 322 | 1.6 | 3.2 | 0.00 | 0.00 | 0.00 | 28 | 1014.0 |
| 20260504173305 | 18 | 233 | 4.8 | 4.8 | 0.00 | 0.00 | 0.00 | 26 | 1014.0 |
| 20260504172803 | 18 | 309 | 0.0 | 0.0 | 0.00 | 0.00 | 0.00 | 26 | 1013.9 |
| 20260504172259 | 19 | 358 | 4.8 | 9.7 | 0.00 | 0.00 | 0.00 | 29 | 1014.4 |
| 20260504171755 | 17 | 314 | 1.6 | 3.2 | 0.00 | 0.00 | 0.00 | 29 | 1014.4 |
| 20260504171252 | 17 | 292 | 6.4 | 8.0 | 0.00 | 0.00 | 0.00 | 30 | 1014.5 |
| 20260504170749 | 17 | 256 | 6.4 | 9.7 | 0.00 | 0.00 | 0.00 | 32 | 1014.5 |
| 20260504170246 | 17 | 320 | 4.8 | 4.8 | 0.00 | 0.00 | 0.00 | 32 | 1014.6 |
| 20260504160205 | 14 | 248 | 4.8 | 4.8 | 0.00 | 0.00 | 0.00 | 37 | 1014.9 |
| 20260504151133 | 14 | 300 | 9.7 | 16.1 | 0.00 | 0.00 | 0.00 | 36 | 1015.0 |
| 20260504150630 | 14 | 259 | 3.2 | 3.2 | 0.00 | 0.00 | 0.00 | 36 | 1014.6 |
| 20260504150127 | 13 | 309 | 1.6 | 3.2 | 0.00 | 0.00 | 0.00 | 38 | 1014.9 |
| 20260504141055 | 12 | 300 | 0.0 | 1.6 | 0.00 | 0.00 | 0.00 | 39 | 1014.7 |
| 20260504140552 | 12 | 319 | 1.6 | 3.2 | 0.00 | 0.00 | 0.00 | 40 | 1014.6 |
| 20260504130516 | 9 | 318 | 1.6 | 4.8 | 0.00 | 0.00 | 0.00 | 42 | 1014.6 |
| 20260504110404 | 6 | 322 | 1.6 | 3.2 | 0.00 | 0.00 | 0.00 | 48 | 1014.9 |
| 20260504100321 | 6 | 319 | 0.0 | 0.0 | 0.00 | 0.00 | 0.00 | 50 | 1015.1 |
| 20260504081715 | 7 | 319 | 0.0 | 0.0 | 0.00 | 0.00 | 0.00 | 43 | 1015.7 |
| 20260504081211 | 7 | 304 | 1.6 | 1.6 | 0.00 | 0.00 | 0.00 | 42 | 1015.9 |
| 20260504080707 | 8 | 303 | 0.0 | 0.0 | 0.00 | 0.00 | 0.00 | 42 | 1015.9 |
| 20260504080204 | 8 | 312 | 0.0 | 1.6 | 0.00 | 0.00 | 0.00 | 42 | 1015.7 |